NITMR53 KNKX-KNKX

Flight info

Callsign NITMR53
Flight time 0h 31m
Altitude 16000
Route SWOLF9 MOUSE GIMPE
Aircraft VF35/M-VD/C

Departure

Time 2026-04-15 02:01
Airport Miramar Marine Corps Air Station - Mitscher Field (KNKX)

Arrival

Time 2026-04-15 02:32
Airport Miramar Marine Corps Air Station - Mitscher Field (KNKX)
Time Latitude Longitude Altitude Speed Heading
2026-04-15 01:57 32.87556 -117.12888 467 ft 0 kts 120°
2026-04-15 01:59 32.87539 -117.12863 467 ft 9 kts 122°
2026-04-15 01:59 32.87473 -117.12811 467 ft 13 kts 168°
2026-04-15 02:00 32.87394 -117.12770 465 ft 12 kts 159°
2026-04-15 02:00 32.87364 -117.12760 464 ft 1 kts 166°
2026-04-15 02:00 32.87281 -117.12747 463 ft 13 kts 225°
2026-04-15 02:00 32.87176 -117.13214 461 ft 153 kts 256°
2026-04-15 02:01 32.87462 -117.14754 1119 ft 232 kts 280°
2026-04-15 02:01 32.87886 -117.16959 2464 ft 311 kts 287°
2026-04-15 02:01 32.88561 -117.19576 4284 ft 327 kts 295°
2026-04-15 02:01 32.89375 -117.21727 9263 ft 278 kts 296°
2026-04-15 02:02 32.90409 -117.24414 12210 ft 447 kts 295°
2026-04-15 02:02 32.91909 -117.28290 14214 ft 574 kts 295°
2026-04-15 02:02 32.93298 -117.33057 14970 ft 638 kts 279°
2026-04-15 02:02 32.93213 -117.38230 15530 ft 592 kts 262°
2026-04-15 02:03 32.92510 -117.42960 16145 ft 576 kts 261°
2026-04-15 02:03 32.91788 -117.47684 15826 ft 584 kts 261°
2026-04-15 02:03 32.91056 -117.52476 15707 ft 594 kts 261°
2026-04-15 02:03 32.90328 -117.57248 15900 ft 597 kts 261°
2026-04-15 02:04 32.89573 -117.62197 15954 ft 600 kts 261°
2026-04-15 02:04 32.88827 -117.67088 15998 ft 601 kts 261°
2026-04-15 02:04 32.88088 -117.71929 15996 ft 602 kts 261°
2026-04-15 02:04 32.87101 -117.76763 15847 ft 603 kts 256°
2026-04-15 02:05 32.85773 -117.81470 15947 ft 599 kts 252°
2026-04-15 02:05 32.84416 -117.86071 16210 ft 582 kts 251°
2026-04-15 02:05 32.82917 -117.90527 16063 ft 579 kts 246°
2026-04-15 02:05 32.81015 -117.94760 15990 ft 579 kts 239°
2026-04-15 02:06 32.78940 -117.98816 16243 ft 578 kts 240°
2026-04-15 02:06 32.76828 -118.02926 16120 ft 582 kts 240°
2026-04-15 02:06 32.74693 -118.07012 15996 ft 582 kts 234°
2026-04-15 02:06 32.72192 -118.10939 16307 ft 611 kts 236°
2026-04-15 02:07 32.69969 -118.14709 16370 ft 512 kts 238°
2026-04-15 02:07 32.68191 -118.18261 15630 ft 572 kts 244°
2026-04-15 02:07 32.66406 -118.23010 13628 ft 671 kts 265°
2026-04-15 02:07 32.66002 -118.27853 14305 ft 522 kts 266°
2026-04-15 02:08 32.65631 -118.31823 15046 ft 445 kts 258°
2026-04-15 02:08 32.64476 -118.34978 15636 ft 389 kts 240°
2026-04-15 02:08 32.63188 -118.37624 15876 ft 360 kts 250°
2026-04-15 02:08 32.62770 -118.40385 15710 ft 327 kts 314°
2026-04-15 02:09 32.65096 -118.40089 10447 ft 508 kts 19°
2026-04-15 02:09 32.65934 -118.36422 8516 ft 620 kts 122°
2026-04-15 02:09 32.63109 -118.32146 6731 ft 694 kts 129°
2026-04-15 02:09 32.59952 -118.27597 4759 ft 689 kts 129°
2026-04-15 02:10 32.58502 -118.25604 9298 ft 189 kts 310°
2026-04-15 02:10 32.59652 -118.26883 8932 ft 210 kts 353°
2026-04-15 02:10 32.61791 -118.27104 8010 ft 342 kts 357°
2026-04-15 02:10 32.63597 -118.27188 14538 ft 247 kts 356°
2026-04-15 02:11 32.65438 -118.27295 16586 ft 351 kts 354°
2026-04-15 02:11 32.67447 -118.27566 12986 ft 136 kts 175°
2026-04-15 02:11 32.65175 -118.27162 11148 ft 439 kts 172°
2026-04-15 02:11 32.61597 -118.26209 10894 ft 598 kts 140°
2026-04-15 02:12 32.62311 -118.22679 13353 ft 423 kts 36°
2026-04-15 02:12 32.62712 -118.22101 24194 ft 34 kts 157°
2026-04-15 02:12 32.62637 -118.21902 32650 ft 32 kts 32°
2026-04-15 02:12 32.63043 -118.21327 35731 ft 142 kts 33°
2026-04-15 02:13 32.63952 -118.20375 33535 ft 210 kts 31°
2026-04-15 02:13 32.65670 -118.18893 30543 ft 397 kts 31°
2026-04-15 02:13 32.68235 -118.16803 30715 ft 501 kts 31°
2026-04-15 02:13 32.71317 -118.14385 33016 ft 510 kts 27°
2026-04-15 02:14 32.74414 -118.12596 37955 ft 480 kts 15°
2026-04-15 02:14 32.77566 -118.11411 42116 ft 504 kts 13°
2026-04-15 02:14 32.80966 -118.10188 44065 ft 525 kts 13°
2026-04-15 02:14 32.84475 -118.08932 46156 ft 525 kts 13°
2026-04-15 02:15 32.88013 -118.07663 48304 ft 519 kts 13°
2026-04-15 02:15 32.91392 -118.06447 50495 ft 508 kts 13°
2026-04-15 02:15 32.94914 -118.05676 51118 ft 520 kts 346°
2026-04-15 02:15 32.98103 -118.07319 50474 ft 505 kts 311°
2026-04-15 02:16 33.00474 -118.10504 49894 ft 525 kts 309°
2026-04-15 02:16 33.02053 -118.12699 49434 ft 528 kts 309°
2026-04-15 02:16 33.04452 -118.16041 48986 ft 526 kts 309°
2026-04-15 02:16 33.06791 -118.19299 49679 ft 506 kts 309°
2026-04-15 02:17 33.09072 -118.22472 51204 ft 498 kts 309°
2026-04-15 02:17 33.11304 -118.25576 52789 ft 490 kts 309°
2026-04-15 02:17 33.12882 -118.29077 53823 ft 483 kts 273°
2026-04-15 02:17 33.12381 -118.33056 50731 ft 502 kts 233°
2026-04-15 02:18 33.10117 -118.36413 44933 ft 580 kts 219°
2026-04-15 02:18 33.06048 -118.38713 39787 ft 715 kts 196°
2026-04-15 02:18 33.00688 -118.39575 35160 ft 845 kts 182°
2026-04-15 02:18 32.94417 -118.38496 32152 ft 957 kts 163°
2026-04-15 02:19 32.88254 -118.35933 31312 ft 921 kts 161°
2026-04-15 02:19 32.82539 -118.32803 30867 ft 894 kts 141°
2026-04-15 02:19 32.78318 -118.27601 31117 ft 864 kts 132°
2026-04-15 02:19 32.74364 -118.22340 31187 ft 842 kts 131°
2026-04-15 02:20 32.70509 -118.17193 31217 ft 825 kts 131°
2026-04-15 02:20 32.66771 -118.12201 31200 ft 809 kts 132°
2026-04-15 02:20 32.63060 -118.07245 31138 ft 794 kts 132°
2026-04-15 02:20 32.59418 -118.02383 31051 ft 780 kts 132°
2026-04-15 02:21 32.55848 -117.97619 30928 ft 766 kts 132°
2026-04-15 02:21 32.52389 -117.93003 30788 ft 752 kts 132°
2026-04-15 02:21 32.49462 -117.87929 30487 ft 726 kts 98°
2026-04-15 02:21 32.50577 -117.82539 29676 ft 659 kts 61°
2026-04-15 02:22 32.52551 -117.77889 25430 ft 618 kts 61°
2026-04-15 02:22 32.54381 -117.73562 21593 ft 562 kts 61°
2026-04-15 02:22 32.56091 -117.69496 18717 ft 538 kts 62°
2026-04-15 02:23 32.59796 -117.61159 16695 ft 598 kts 60°
2026-04-15 02:23 32.61785 -117.56840 16603 ft 593 kts 59°
2026-04-15 02:23 32.63810 -117.52526 16492 ft 602 kts 58°
2026-04-15 02:23 32.65948 -117.48235 16268 ft 603 kts 57°
2026-04-15 02:24 32.68138 -117.44177 16219 ft 558 kts 53°
2026-04-15 02:24 32.70415 -117.40373 16310 ft 574 kts 52°
2026-04-15 02:24 32.72868 -117.36675 16284 ft 574 kts 47°
2026-04-15 02:24 32.75566 -117.33152 16281 ft 575 kts 46°
2026-04-15 02:25 32.78285 -117.29662 16160 ft 575 kts 46°
2026-04-15 02:25 32.80971 -117.26137 16169 ft 575 kts 48°
2026-04-15 02:25 32.83505 -117.22452 16208 ft 575 kts 50°
2026-04-15 02:25 32.86010 -117.18741 16252 ft 575 kts 50°
2026-04-15 02:26 32.88353 -117.14875 16271 ft 577 kts 57°
2026-04-15 02:26 32.90429 -117.10813 16351 ft 577 kts 57°
2026-04-15 02:26 32.92516 -117.06714 16412 ft 576 kts 57°
2026-04-15 02:26 32.94595 -117.02624 16293 ft 579 kts 57°
2026-04-15 02:27 32.96678 -116.98545 16041 ft 579 kts 57°
2026-04-15 02:27 32.98718 -116.94689 15424 ft 515 kts 54°
2026-04-15 02:27 33.00617 -116.91404 14646 ft 456 kts 53°
2026-04-15 02:27 33.00640 -116.88827 14167 ft 296 kts 143°
2026-04-15 02:28 32.99014 -116.87447 13975 ft 270 kts 147°
2026-04-15 02:28 32.97357 -116.86447 13686 ft 287 kts 159°
2026-04-15 02:28 32.95401 -116.85859 13299 ft 280 kts 172°
2026-04-15 02:28 32.93614 -116.86186 12281 ft 261 kts 216°
2026-04-15 02:29 32.92603 -116.87933 10597 ft 270 kts 253°
2026-04-15 02:29 32.92047 -116.90187 8849 ft 296 kts 256°
2026-04-15 02:29 32.91461 -116.92547 7731 ft 297 kts 255°
2026-04-15 02:29 32.90922 -116.94923 6752 ft 294 kts 258°
2026-04-15 02:30 32.90472 -116.97276 5809 ft 290 kts 255°
2026-04-15 02:30 32.89983 -116.99584 4918 ft 286 kts 258°
2026-04-15 02:30 32.89547 -117.01834 4050 ft 281 kts 258°
2026-04-15 02:30 32.89115 -117.04073 3037 ft 262 kts 258°
2026-04-15 02:31 32.88748 -117.05877 2478 ft 191 kts 258°
2026-04-15 02:31 32.88435 -117.07362 2070 ft 170 kts 258°
2026-04-15 02:31 32.88166 -117.08577 1538 ft 165 kts 259°
2026-04-15 02:31 32.87877 -117.09956 1185 ft 153 kts 258°
2026-04-15 02:32 32.87615 -117.11175 901 ft 149 kts 257°
2026-04-15 02:32 32.87360 -117.12349 629 ft 153 kts 257°
2026-04-15 02:32 32.87124 -117.13455 462 ft 106 kts 257°
2026-04-15 02:32 32.87019 -117.13934 461 ft 38 kts 255°
2026-04-15 02:33 32.87039 -117.14202 463 ft 15 kts 290°
2026-04-15 02:33 32.87041 -117.14210 463 ft 0 kts 290°
2026-04-15 02:33 32.87060 -117.14261 464 ft 10 kts 314°
2026-04-15 02:34 32.87098 -117.14214 466 ft 15 kts 76°
2026-04-15 02:34 32.87132 -117.14071 466 ft 18 kts 73°
2026-04-15 02:34 32.87167 -117.13927 466 ft 18 kts 76°
2026-04-15 02:34 32.87195 -117.13786 465 ft 17 kts 76°
2026-04-15 02:35 32.87215 -117.13636 464 ft 21 kts 104°
2026-04-15 02:35 32.87250 -117.13510 464 ft 15 kts 75°
2026-04-15 02:35 32.87282 -117.13377 465 ft 24 kts 74°
2026-04-15 02:35 32.87327 -117.13173 465 ft 25 kts 75°
2026-04-15 02:36 32.87373 -117.12971 465 ft 25 kts 74°
2026-04-15 02:36 32.87417 -117.12779 466 ft 24 kts 73°
2026-04-15 02:36 32.87509 -117.12737 467 ft 14 kts 341°
2026-04-15 02:36 32.87594 -117.12783 467 ft 13 kts 345°
2026-04-15 02:37 32.87608 -117.12816 467 ft 3 kts 255°
2026-04-15 02:37 32.87607 -117.12819 467 ft 0 kts 255°